[Iaude] MPEC O117: 2024 OQ1 [a=2.23,e=0.46,i=4.7,H=22.9]
    mpec at cfa.harvard.edu 
    mpec at cfa.harvard.edu
       
    Wed Jul 31 17:34:22 EDT 2024
    
    
  
M.P.E.C. 2024-O117                                Issued 2024 July 31, 21:32 UT
     The Minor Planet Electronic Circulars contain information on unusual
         minor planets, routine data on comets and natural satellites,
         and occasional editorial announcements.  They are published
    on behalf of Division F of the International Astronomical Union by the
          Minor Planet Center, Smithsonian Astrophysical Observatory,
                          Cambridge, MA 02138, U.S.A.
			  
             Prepared using the Tamkin Foundation Computer Network
                              MPC at CFA.HARVARD.EDU
            URL https://www.minorplanetcenter.net/    ISSN 1523-6714
                                    2024 OQ1                                    
Observations:
     K24O01Q  C2024 07 26.51309720 25 19.665+09 22 18.80         20.97GVEO117F51
     K24O01Q  C2024 07 26.51917220 25 20.403+09 22 17.74         20.78GVEO117F51
     K24O01Q  C2024 07 26.52517620 25 21.126+09 22 16.57         21.09GVEO117F51
     K24O01Q* C2024 07 30.35978120 33 51.978+09 04 24.34         20.92wXEO117F51
     K24O01Q  C2024 07 30.36761020 33 52.884+09 04 21.42         20.99wXEO117F51
     K24O01Q  C2024 07 30.37550220 33 53.792+09 04 18.55         21.06wXEO117F51
     K24O01Q  C2024 07 30.42966620 33 59.955+09 03 57.87         20.77GVEO117F51
     K24O01Q  C2024 07 30.43031520 33 59.983+09 03 57.27         20.50GVEO117F51
     K24O01Q KC2024 07 30.95559720 35 07.93 +09 00 12.2          21.0 GVEO117L01
     K24O01Q pC2024 07 30.95728020 35 08.12 +09 00 11.2          21.1 GVEO117L01
     K24O01Q pC2024 07 30.95896220 35 08.40 +09 00 10.6          20.7 GVEO117L01
     K24O01Q KC2024 07 30.96232620 35 08.81 +09 00 09.4          20.8 GVEO117L01
     K24O01Q !C2024 07 31.31827 20 35 54.67 +08 57 46.1          20.5 GVEO117673
     K24O01Q !C2024 07 31.32744 20 35 55.72 +08 57 42.5                VEO117673
Observer details:
673 Table Mountain Observatory, Wrightwood.  Observer J. Pittichova.  1.0-m
    f/15 reflector + CCD.
F51 Pan-STARRS 1, Haleakala.  Observers J. Herman, T. Lowe, P. Minguez, A.
    Schultz, I. Smith.  Measurers K. Chambers, T. de Boer, J. Fairlamb, H.
    Gao, M. Huber, C.-C. Lin, E. Magnier, Y. Ramanjooloo, R. Wainscoat, R.
    Weryk.  1.8-m Ritchey-Chretien + CCD.
L01 Visnjan Observatory, Tican.  Observer K. Korlevic.  1.0-m f/2.9 reflector
    + CCD.
Orbital elements:
2024 OQ1                                                 Earth MOID = 0.2014 AU
Epoch 2024 Oct. 17.0 TT = JDT 2460600.5                 Veres                   
M  27.81217              (2000.0)            P               Q                  
n   0.29621781     Peri.   91.41996     +0.41229570     +0.91048416             
a   2.2287530      Node   203.01223     -0.86513027     +0.38022413             
e   0.4636277      Incl.    4.71102     -0.28559040     +0.16262907             
P   3.33           H   22.95          G   0.15           U   8                  
Residuals in seconds of arc
240726 F51  0.1-  0.1-    240730 F51  0.1+  0.0     240730 L01  0.6+  0.1-
240726 F51  0.0   0.0     240730 F51  0.2+  0.3-    240730 L01  0.8+  0.1+
240726 F51  0.0   0.0     240730 F51  0.5-  0.6-    240731 673  0.4-  0.3+
240730 F51  0.1-  0.1+    240730 L01  0.6-  0.1+    240731 673  0.3-  0.6+
240730 F51  0.0   0.0     240730 L01  0.7-  0.2-
Ephemeris:
2024 OQ1                 a,e,i = 2.23, 0.46, 5                   q = 1.1954
Date    TT    R. A. (2000) Decl.     Delta      r    Elong.  Phase     V
2024 07 01    19 24 41.0 +05 24 08   0.2128  1.2049   149.5    25.3    21.2
...
2024 07 16    20 00 43.7 +08 59 25   0.2030  1.1954   149.3    25.7    21.1
...
2024 07 24    20 19 37.1 +09 26 45   0.2055  1.1992   150.6    24.5    21.0
...
2024 07 30    20 33 03.9 +09 06 48   0.2109  1.2060   152.3    23.0    21.1
2024 07 31    20 35 13.5 +09 00 18   0.2120  1.2074   152.7    22.7    21.1
2024 08 01    20 37 21.7 +08 52 58   0.2133  1.2090   153.0    22.4    21.1
...
2024 08 07    20 49 39.8 +07 52 52   0.2229  1.2201   155.2    20.4    21.1
...
2024 08 15    21 04 43.2 +05 59 51   0.2409  1.2398   158.2    17.6    21.2
...
2024 08 30    21 29 17.2 +01 48 28   0.2932  1.2899   160.6    15.1    21.7
M. P. C. Staff               (C) Copyright 2024 MPC           M.P.E.C. 2024-O117
    
    
More information about the Iaude
mailing list